Weather in Wloclawek

Poland     52°39′17″N   19°04′00″E
temp.,
°C
wind,
m/s
gust,
m/s
humid.,
%
clouds,
%
prec.,
mm/h
press.,
hPa
HPBL,
m
12 april, mon
mon1223:00+12sse6146294 0.0 1015584
02:00+10sse51372100 0.0 1015450
05:00+8sse4109075 0.0 1015278
08:00+10ssw477794 0.0 1016336
11:00+12w3371100 0.0 1017864
14:00+7nw6879100 0.0 1019533
17:00+4nw61195100 0.4 1021609
20:00+3nnw4996100 1.3 1024469
13 april, tue
tue1323:00+3nw269399 0.0 1024318
02:00+3nw3885100 0.0 1025346
05:00+3nw3781100 0.0 1026282
08:00+4nw3574100 0.0 1027244
11:00+7nw3455100 0.0 10271030
14:00+9nw4545100 0.0 10261742
17:00+8nw4538100 0.0 10251796
20:00+7wnw1149100 0.0 102512
14 april, wed
wed1423:00+5n51058100 0.0 1026396
02:00+4nnw3668100 0.0 1025188
05:00+3nw3768100 0.0 1025294
08:00+4nw4770100 0.0 1025456
11:00+7nnw5657100 0.0 10241330
14:00+8nnw4647100 0.1 10231729
17:00+8nne5655100 0.2 10231467
20:00+5nne61069100 0.2 1024615
15 april, thu
thu1523:00+4n61170100 0.0 1024570
02:00+3n61174100 0.1 1023716
05:00+2nnw61179100 0.4 1023486
08:00+3n61279100 0.4 1023657
11:00+5n71169100 0.1 1023985
14:00+6nne71078100 0.4 10221043
17:00+5nne4993100 1.8 1022905
20:00+5n597998 3.1 1022479
16 april, fri
fri1623:00+4n5118297 0.0 1022377
02:00+4nne51181100 0.0 1022548
05:00+4nne41080100 0.0 1022561
08:00+4n597593 0.0 1023560
11:00+7nne686698 0.0 10231036
14:00+6ne5679100 0.1 1024921
17:00+6ne5579100 0.1 1025811
20:00+4ne3796100 0.1 1026508